Starlink 31207

operational
NORAD ID: 59035 Int'l Des: 2024-038 Owner: SPXS Country: US Constellation: starlink
LEOCIRCULAR

Starlink 31207について

説明を読み込み中...

リアルタイム位置

3D地球を読み込み中...

次回通過

高度履歴

Altitude vs Time

uPlot chart will show altitude changes over time

軌道要素

1 59035U 24038N 25307.59293683 .00007156 00000-0 26952-3 0 9997
2 59035 43.0013 15.6745 0000056 68.4459 291.6398 15.27551419 95574
Epoch: Nov 3, 2025 • Age: 16 hours

現在のステータス

高度 484.2 km
速度 7.63 km/s
衛星直下点 33.03°N, 7.04°E
打ち上げ日 Feb 25, 2024
運用期間 1.6 years
タイプ internet

技術仕様

分類 Payload
質量 730.00 kg
乾燥質量 700.00 kg
総質量 730.00 kg
長さ 0.30 m
直径 4.10 m
スパン 29.00 m
形状 Box + pan
製造者 SPXS
バスタイプ Starlink V2M
フェーズステータス In Orbit
所有者/国 SPXS/US

大規模コンステレーション

Loading constellations...